Regional Weather Roundup
Issued by NWS

Home | Current Version | Previous Version | Text Only | Print | Product List | Glossary Off
Versions: 1 2 3 4 5 6 7 8 9 10 11 12 13 14 15 16 17 18 19 20 21 22 23 24 25 26 27

000
ASUS45 KCYS 221510
RWRWY

WYOMING REGIONAL WEATHER ROUNDUP
NATIONAL WEATHER SERVICE CHEYENNE WY
900 AM MDT TUE AUG 22 2017

NOTE:  "FAIR" INDICATES FEW OR NO CLOUDS BELOW 12,000 FEET
WITH NO SIGNIFICANT WEATHER AND/OR OBSTRUCTIONS TO VISIBILITY.

WYZ001-221600-
YELLOWSTONE NATIONAL PARK

CITY           SKY/WX    TMP DP  RH WIND       PRES   REMARKS
LK YELLOWSTONE   N/A     52  44  74 SE3       30.47R
W YELLOWSTONE  NOT AVBL

$$
WYZ002>013-054>058-071-098>099-221600-
NORTHERN WYOMING

CITY           SKY/WX    TMP DP  RH WIND       PRES   REMARKS
JACKSON        FAIR      50  32  50 NW5       30.41S
CODY           FAIR      66  37  34 W5        30.29R
GREYBULL       FAIR      59  39  47 CALM      30.23S
WORLAND        FAIR      59  39  47 SW3       30.24S
SHERIDAN       FAIR      62  40  44 CALM      30.22R
BUFFALO        FAIR      70  33  25 S3        30.27R
GILLETTE       FAIR      69  41  36 S16       30.24R
HULETT         FAIR      68  37  32 S12       30.27S
NEWCASTLE      FAIR      64  36  34 SE10G18   30.29F

$$
WYZ014>020-022>026-101>103-221600-
CENTRAL WYOMING

CITY           SKY/WX    TMP DP  RH WIND       PRES   REMARKS
BIG PINEY      FAIR      55  28  35 NE6       30.42R
PINEDALE       FAIR      52  32  46 NW6       30.43S
DUBOIS         FAIR      52  32  46 NW10      30.41F
LANDER           N/A    N/A N/A N/A MISG      30.33S
RIVERTON       FAIR      63  39  41 NW8       30.31S
CASPER         FAIR      60  40  47 CALM      30.30S
DOUGLAS        FAIR      63  44  50 SE13      30.30R

$$
WYZ021-027>030-104>119-221600-
SOUTHERN WYOMING

CITY           SKY/WX    TMP DP  RH WIND       PRES   REMARKS
EVANSTON       FAIR      65  39  38 CALM      30.40R
KEMMERER         N/A     54  34  47 N6        30.41S
FORT BRIDGER   FAIR      65  32  28 CALM      30.43R
ROCK SPRINGS   FAIR      62  34  35 CALM      30.39R
RAWLINS        NOT AVBL
SARATOGA       FAIR      59  45  58 CALM      30.40R
LARAMIE        FAIR      63  45  51 SE10      30.39R
CHEYENNE       CLOUDY    60  55  83 S15       30.37R
TORRINGTON     FAIR      64  51  62 SE9       30.29R
PINE BLUFFS    CLOUDY    63  52  67 S13       30.35S

$$




USA.gov is the U.S. government's official web portal to all federal, state and local government web resources and services.